Pratt, KS

9:51 AM CDT on March 24, 2017 (GMT -0500)
Pratt Industrial

Weather History for KPTT - November, 2013

Change the Weather History Date:

Saturday, November 16, 2013

  Actual Average (KP28) Record (KP28)
Temperature  
Mean Temperature 62 °F -  
Max Temperature 75 °F 56 °F 85 °F (2016)
Min Temperature 48 °F 34 °F 8 °F (1932)
Degree Days  
Heating Degree Days 4    
Growing Degree Days 12 (Base 50)    
Moisture  
Dew Point 38 °F    
Average Humidity 47    
Maximum Humidity 76    
Minimum Humidity 22    
Precipitation  
Precipitation 0.00 in - - ()
Sea Level Pressure  
Sea Level Pressure 29.46 in    
Wind  
Wind Speed 19 mph (SSW)    
Max Wind Speed 31 mph    
Max Gust Speed 38 mph    
Visibility 10 miles    
Events      
Averages and records for this station are not official NWS values.
T = Trace of Precipitation, MM = Missing Value Source: NWS Daily Summary

Daily Weather History Graph

Daily Weather History Graph

Search for Another Location

Airport or City:

Trip Planner

Search our weather history database for the weather conditions in past years. The results will help you decide how hot, cold, wet, or windy it might be!

Date:

Astronomy

Nov. 16, 2013 Rise Set
Actual Time 7:16 AM CST 5:22 PM CST
Civil Twilight 6:48 AM CST 5:50 PM CST
Nautical Twilight 6:16 AM CST 6:22 PM CST
Astronomical Twilight 5:45 AM CST 6:53 PM CST
Moon 4:58 PM CST (11/16) 6:15 AM CST (11/16)
Length of Visible Light 11h 02m
Length of Day
10h 06m
Waxing Gibbous, 99% of the Moon is Illuminated
Nov 16
Waxing Gibbous
Nov 17
Full
Nov 25
Last Quarter
Dec 2
New
Dec 9
First Quarter

Hourly Weather History & Observations

Time (CST) Temp. Dew Point Humidity Pressure Visibility Wind Dir Wind Speed Gust Speed Precip Events Conditions
12:15 AM 50.0 °F 41.0 °F 71% 29.60 in 10.0 mi South 17.3 mph - N/A   Clear
12:35 AM 50.0 °F 41.0 °F 71% 29.59 in 10.0 mi South 16.1 mph 21.9 mph N/A   Clear
12:55 AM 50.0 °F 41.0 °F 71% 29.59 in 10.0 mi South 16.1 mph 20.7 mph N/A   Clear
1:15 AM 50.0 °F 41.0 °F 71% 29.58 in 10.0 mi South 15.0 mph - N/A   Clear
1:35 AM 50.0 °F 41.0 °F 71% 29.57 in 10.0 mi South 15.0 mph - N/A   Clear
1:55 AM 48.2 °F 41.0 °F 76% 29.55 in 10.0 mi South 15.0 mph - N/A   Clear
2:15 AM 50.0 °F 41.0 °F 71% 29.55 in 10.0 mi South 17.3 mph - N/A   Clear
2:35 AM 50.0 °F 42.8 °F 76% 29.54 in 10.0 mi South 17.3 mph - N/A   Clear
2:55 AM 50.0 °F 42.8 °F 76% 29.53 in 10.0 mi South 18.4 mph 23.0 mph N/A   Clear
3:15 AM 50.0 °F 42.8 °F 76% 29.53 in 10.0 mi South 17.3 mph 25.3 mph N/A   Clear
3:35 AM 50.0 °F 42.8 °F 76% 29.53 in 10.0 mi South 17.3 mph 21.9 mph N/A   Clear
3:55 AM 51.8 °F 42.8 °F 71% 29.52 in 10.0 mi South 18.4 mph 24.2 mph N/A   Clear
4:15 AM 51.8 °F 42.8 °F 71% 29.51 in 10.0 mi South 19.6 mph - N/A   Clear
4:35 AM 51.8 °F 42.8 °F 71% 29.52 in 10.0 mi South 17.3 mph - N/A   Clear
4:55 AM 51.8 °F 42.8 °F 71% 29.50 in 10.0 mi South 16.1 mph - N/A   Clear
5:15 AM 51.8 °F 42.8 °F 71% 29.50 in 10.0 mi South 16.1 mph - N/A   Clear
5:35 AM 51.8 °F 42.8 °F 71% 29.50 in 10.0 mi South 15.0 mph - N/A   Clear
5:55 AM 51.8 °F 42.8 °F 71% 29.50 in 10.0 mi South 19.6 mph - N/A   Clear
6:15 AM 53.6 °F 42.8 °F 67% 29.49 in 10.0 mi South 19.6 mph - N/A   Clear
6:35 AM 53.6 °F 42.8 °F 67% 29.48 in 10.0 mi South 19.6 mph - N/A   Clear
6:55 AM 53.6 °F 44.6 °F 72% 29.48 in 10.0 mi South 19.6 mph - N/A   Clear
7:15 AM 53.6 °F 44.6 °F 72% 29.48 in 10.0 mi South 18.4 mph - N/A   Clear
7:35 AM 53.6 °F 44.6 °F 72% 29.49 in 10.0 mi SSW 16.1 mph - N/A   Clear
7:55 AM 53.6 °F 44.6 °F 72% 29.49 in 10.0 mi South 18.4 mph 23.0 mph N/A   Clear
8:15 AM 53.6 °F 44.6 °F 72% 29.49 in 10.0 mi South 19.6 mph - N/A   Clear
8:35 AM 55.4 °F 44.6 °F 67% 29.49 in 10.0 mi SSW 18.4 mph - N/A   Clear
8:55 AM 57.2 °F 44.6 °F 63% 29.49 in 10.0 mi SSW 20.7 mph - N/A   Clear
9:15 AM 60.8 °F 44.6 °F 55% 29.50 in 10.0 mi SSW 24.2 mph 29.9 mph N/A   Clear
9:35 AM 60.8 °F 44.6 °F 55% 29.51 in 10.0 mi SSW 20.7 mph 26.5 mph N/A   Clear
9:55 AM 64.4 °F 44.6 °F 49% 29.50 in 10.0 mi SW 20.7 mph 27.6 mph N/A   Clear
10:15 AM 66.2 °F 42.8 °F 43% 29.50 in 10.0 mi SW 24.2 mph 28.8 mph N/A   Clear
10:35 AM 68.0 °F 42.8 °F 40% 29.50 in 10.0 mi SW 28.8 mph 35.7 mph N/A   Clear
10:55 AM 68.0 °F 42.8 °F 40% 29.50 in 10.0 mi SW 27.6 mph 33.4 mph N/A   Clear
11:15 AM 68.0 °F 41.0 °F 37% 29.50 in 10.0 mi SW 24.2 mph - N/A   Clear
11:35 AM 68.0 °F 41.0 °F 37% 29.49 in 10.0 mi WSW 23.0 mph 28.8 mph N/A   Clear
11:55 AM 69.8 °F 41.0 °F 35% 29.48 in 10.0 mi WSW 18.4 mph 24.2 mph N/A   Clear
12:15 PM 71.6 °F 41.0 °F 33% 29.46 in 10.0 mi WSW 20.7 mph 24.2 mph N/A   Clear
12:35 PM 71.6 °F 39.2 °F 31% 29.45 in 10.0 mi WSW 27.6 mph 33.4 mph N/A   Clear
12:55 PM 71.6 °F 39.2 °F 31% 29.44 in 10.0 mi WSW 23.0 mph 31.1 mph N/A   Clear
1:15 PM 73.4 °F 37.4 °F 27% 29.43 in 10.0 mi WSW 23.0 mph 32.2 mph N/A   Clear
1:35 PM 73.4 °F 35.6 °F 25% 29.41 in 10.0 mi WSW 25.3 mph 33.4 mph N/A   Clear
1:55 PM 73.4 °F 35.6 °F 25% 29.41 in 10.0 mi WSW 24.2 mph 33.4 mph N/A   Clear
2:15 PM 73.4 °F 37.4 °F 27% 29.41 in 10.0 mi WSW 24.2 mph 33.4 mph N/A   Clear
2:35 PM 75.2 °F 37.4 °F 25% 29.40 in 10.0 mi WSW 20.7 mph 33.4 mph N/A   Clear
2:55 PM 75.2 °F 37.4 °F 25% 29.39 in 10.0 mi WSW 26.5 mph 34.5 mph N/A   Clear
3:15 PM 75.2 °F 35.6 °F 24% 29.39 in 10.0 mi WSW 24.2 mph 38.0 mph N/A   Clear
3:35 PM 75.2 °F 33.8 °F 22% 29.39 in 10.0 mi WSW 31.1 mph 35.7 mph N/A   Clear
3:55 PM 73.4 °F 32.0 °F 22% 29.40 in 10.0 mi SW 27.6 mph 34.5 mph N/A   Clear
4:15 PM 73.4 °F 32.0 °F 22% 29.40 in 10.0 mi WSW 19.6 mph 27.6 mph N/A   Clear
4:35 PM 71.6 °F 32.0 °F 23% 29.41 in 10.0 mi SW 21.9 mph - N/A   Clear
4:55 PM 69.8 °F 32.0 °F 25% 29.41 in 10.0 mi WSW 25.3 mph 32.2 mph N/A   Clear
5:15 PM 69.8 °F 30.2 °F 23% 29.41 in 10.0 mi WSW 21.9 mph 26.5 mph N/A   Clear
5:35 PM 68.0 °F 32.0 °F 26% 29.41 in 10.0 mi SW 16.1 mph - N/A   Clear
5:55 PM 64.4 °F 32.0 °F 30% 29.41 in 10.0 mi SW 13.8 mph - N/A   Scattered Clouds
6:15 PM 64.4 °F 32.0 °F 30% 29.41 in 10.0 mi SSW 12.7 mph 19.6 mph N/A   Mostly Cloudy
6:35 PM 66.2 °F 32.0 °F 28% 29.41 in 10.0 mi SW 16.1 mph 21.9 mph N/A   Overcast
6:55 PM 66.2 °F 32.0 °F 28% 29.41 in 10.0 mi SW 16.1 mph - N/A   Overcast
7:15 PM 64.4 °F 32.0 °F 30% 29.41 in 10.0 mi SSW 13.8 mph - N/A   Scattered Clouds
7:35 PM 64.4 °F 32.0 °F 30% 29.41 in 10.0 mi SSW 13.8 mph - N/A   Clear
7:55 PM 60.8 °F 33.8 °F 36% 29.41 in 10.0 mi SSW 13.8 mph - N/A   Clear
8:15 PM 60.8 °F 33.8 °F 36% 29.41 in 10.0 mi SSW 15.0 mph - N/A   Clear
8:35 PM 62.6 °F 33.8 °F 34% 29.40 in 10.0 mi SSW 18.4 mph - N/A   Clear
8:55 PM 60.8 °F 32.0 °F 34% 29.40 in 10.0 mi SSW 17.3 mph - N/A   Clear
9:15 PM 62.6 °F 32.0 °F 32% 29.40 in 10.0 mi SSW 18.4 mph - N/A   Clear
9:35 PM 62.6 °F 32.0 °F 32% 29.40 in 10.0 mi SSW 18.4 mph 24.2 mph N/A   Clear
9:55 PM 62.6 °F 32.0 °F 32% 29.39 in 10.0 mi SSW 21.9 mph 25.3 mph N/A   Clear
10:15 PM 60.8 °F 32.0 °F 34% 29.40 in 10.0 mi SSW 19.6 mph 26.5 mph N/A   Clear
10:35 PM 60.8 °F 32.0 °F 34% 29.40 in 10.0 mi SSW 21.9 mph 25.3 mph N/A   Clear
10:55 PM 60.8 °F 32.0 °F 34% 29.40 in 10.0 mi SW 21.9 mph - N/A   Clear
11:15 PM 59.0 °F 32.0 °F 36% 29.40 in 10.0 mi SW 18.4 mph - N/A   Clear
11:35 PM 59.0 °F 32.0 °F 36% 29.41 in 10.0 mi SW 16.1 mph - N/A   Clear
11:55 PM 55.4 °F 32.0 °F 41% 29.41 in 10.0 mi SW 15.0 mph - N/A   Clear